Tracking 35035 objects as of 16-Aug-2026
HD Live streaming from Space Station
objects crossing your sky now

FREGAT DEB


10-day predictions


NORAD ID: 46258
Int'l Code: 2011-037KU
Launch date: July 18, 2011
Source: Commonwealth of Independent States (former USSR) (CIS)
Launch site: TYURATAM MISSILE AND SPACE COMPLEX (TTMTR)

Note: This is SATELLITE DEBRIS
Your satellite tracking list
Your tracking list is empty




NASA's NSSDC Master Catalog

Two Line Element Set (TLE):
1 46258U 11037KU  21233.56628784 -.00015210  00000-0 -12836-1 0  9996
2 46258  51.6604 305.3187 2413977 263.9791  68.3334  9.92853432 35815
Source of the keplerian elements: AFSPC